DW6536 Weather Reports


time (UTC)temp
F
wind
direction
speed
knots
gust
knots
rain 1hr
in
rain 24hr
in
rain mn
in
humidity
%
barometer
mb
20260905200117 98 252 1.7 0.0 0.00 0.00 0.00 40 1009.4
20260905194555 98 124 1.7 0.0 0.00 0.00 0.00 40 1009.6
20260905193053 98 153 1.7 0.0 0.00 0.00 0.00 42 1009.8
20260905191550 97 138 1.7 0.0 0.00 0.00 0.00 42 1010.2
20260905190047 97 104 1.7 0.0 0.00 0.00 0.00 41 1010.4
20260905184545 96 225 1.7 0.0 0.00 0.00 0.00 39 1010.7
20260905183045 96 45 1.7 0.0 0.00 0.00 0.00 45 1011.0
20260905181542 95 100 1.7 0.0 0.00 0.00 0.00 49 1011.1
20260905180040 95 199 1.7 0.0 0.00 0.00 0.00 46 1011.5
20260905174543 95 223 1.7 0.0 0.00 0.00 0.00 48 1011.8
20260905173054 94 54 1.7 0.0 0.00 0.00 0.00 50 1011.9
20260905171536 93 131 1.7 0.0 0.00 0.00 0.00 51 1012.1
20260905170031 92 148 0.9 0.0 0.00 0.00 0.00 55 1012.1
20260905164530 92 197 1.7 0.0 0.00 0.00 0.00 56 1012.4
20260905163027 91 322 1.7 0.0 0.00 0.00 0.00 60 1012.3
20260905161528 91 180 1.7 0.0 0.00 0.00 0.00 61 1012.2
20260905160022 90 160 1.7 0.0 0.00 0.00 0.00 62 1012.3
20260905154519 88 303 0.9 0.0 0.00 0.00 0.00 65 1012.3
20260905153018 88 191 0.9 0.0 0.00 0.00 0.00 66 1012.2
20260905151514 86 235 0.9 0.0 0.00 0.00 0.00 71 1012.2
20260905150010 85 209 0.9 0.0 0.00 0.00 0.00 73 1012.4
20260905144506 83 197 1.7 0.0 0.00 0.00 0.00 77 1012.3
20260905143003 82 251 0.9 0.0 0.00 0.00 0.00 80 1012.3
20260905141603 81 153 0.9 0.0 0.00 0.00 0.00 83 1012.3
20260905140100 79 219 0.9 0.0 0.00 0.00 0.00 86 1012.1
20260905134602 79 189 0.9 0.0 0.00 0.00 0.00 87 1012.2
20260905133058 78 145 0.9 0.0 0.00 0.00 0.00 91 1011.9
20260905131553 77 167 0.0 0.0 0.00 0.00 0.00 92 1011.7
20260905130053 75 115 0.0 0.0 0.00 0.00 0.00 92 1011.5
20260905124551 75 115 0.0 0.0 0.00 0.00 0.00 91 1011.4
20260905123049 75 115 0.0 0.0 0.00 0.00 0.00 91 1011.4
20260905121549 75 115 0.0 0.0 0.00 0.00 0.00 90 1011.2
20260905120047 75 115 0.0 0.0 0.00 0.00 0.00 90 1010.9
20260905114546 75 115 0.0 0.0 0.00 0.00 0.00 90 1010.9
20260905113045 75 115 0.0 0.0 0.00 0.00 0.00 89 1010.9
20260905111543 76 115 0.0 0.0 0.00 0.00 0.00 89 1010.8
20260905110055 76 115 0.0 0.0 0.00 0.00 0.00 89 1010.7
20260905104541 76 115 0.0 0.0 0.00 0.00 0.00 89 1010.7
20260905103048 76 115 0.0 0.0 0.00 0.00 0.00 88 1010.6
20260905101551 77 115 0.0 0.0 0.00 0.00 0.00 87 1010.7
20260905100037 77 115 0.0 0.0 0.00 0.00 0.00 87 1010.6
20260905094536 77 115 0.0 0.0 0.00 0.00 0.00 87 1010.6
20260905093034 78 111 0.0 0.0 0.00 0.00 0.00 86 1010.4
20260905091533 78 209 0.0 0.0 0.00 0.00 0.00 86 1010.6
20260905090033 78 200 0.0 0.0 0.00 0.00 0.00 86 1010.6
20260905084530 78 201 0.0 0.0 0.00 0.00 0.00 85 1010.7
20260905083028 79 124 0.0 0.0 0.00 0.00 0.00 84 1010.6
20260905081529 79 201 0.0 0.0 0.00 0.00 0.00 84 1010.7
20260905080026 79 168 0.0 0.0 0.00 0.00 0.00 84 1010.8
20260905074532 79 211 0.9 0.0 0.00 0.00 0.00 84 1010.9
20260905073022 79 164 0.9 0.0 0.00 0.00 0.00 83 1011.0
20260905071521 80 133 0.0 0.0 0.00 0.00 0.00 82 1011.2
20260905070020 80 143 0.9 0.0 0.00 0.00 0.00 81 1011.2
20260905064518 80 228 0.9 0.0 0.00 0.00 0.00 80 1011.1
20260905063018 80 132 0.9 0.0 0.00 0.00 0.00 80 1011.1
20260905061516 80 161 0.9 0.0 0.00 0.00 0.00 79 1011.3
20260905060015 80 188 0.0 0.0 0.00 0.00 0.00 78 1011.3
20260905054516 80 137 0.0 0.0 0.00 0.00 0.00 77 1011.3
20260905053013 80 143 0.9 0.0 0.00 0.00 0.00 77 1011.2
20260905051513 81 136 0.9 0.0 0.00 0.00 0.00 76 1011.4
20260905050009 81 131 0.9 0.0 0.00 0.00 0.00 75 1011.4
20260905044510 81 163 0.9 0.0 0.00 0.00 0.00 74 1011.4
20260905043007 82 134 0.9 0.0 0.00 0.00 0.00 73 1011.3
20260905041508 82 172 0.9 0.0 0.00 0.00 0.00 73 1011.4
20260905040007 82 154 0.9 0.0 0.00 0.00 0.00 72 1011.3
20260905034510 82 104 1.7 0.0 0.00 0.00 0.00 71 1011.2
20260905033006 82 134 0.9 0.0 0.00 0.00 0.00 70 1011.1
20260905031505 82 122 0.0 0.0 0.00 0.00 0.00 70 1011.2
20260905030007 83 141 0.0 0.0 0.00 0.00 0.00 71 1010.9
20260905024508 83 117 0.9 0.0 0.00 0.00 0.00 71 1010.7
20260905023010 84 142 0.9 0.0 0.00 0.00 0.00 70 1010.6
20260905021506 84 117 0.9 0.0 0.00 0.00 0.00 70 1010.3
20260905020003 84 149 0.9 0.0 0.00 0.00 0.00 69 1010.3
20260905014503 85 141 1.7 0.0 0.00 0.00 0.00 68 1010.2
20260905013002 85 212 0.9 0.0 0.00 0.00 0.00 67 1010.2
20260905011501 86 133 0.9 0.0 0.00 0.00 0.00 65 1010.0
20260905010003 86 148 0.9 0.0 0.00 0.00 0.00 64 1009.9
20260905004631 86 128 0.9 0.0 0.00 0.00 0.00 64 1009.8
20260905003059 87 131 1.7 0.0 0.00 0.00 0.00 65 1009.5
20260905001559 87 183 2.6 0.0 0.00 0.00 0.00 64 1009.4
20260905000058 88 162 3.5 0.0 0.00 0.00 0.00 62 1009.4
20260904234558 90 122 2.6 0.0 0.00 0.00 0.00 60 1009.2
20260904233057 91 182 2.6 0.0 0.00 0.00 0.00 57 1009.1
20260904231557 93 118 3.5 0.0 0.00 0.00 0.00 54 1009.1
20260904230127 93 221 2.6 0.0 0.00 0.00 0.00 45 1009.3
20260904224601 94 230 2.6 0.0 0.00 0.00 0.00 42 1009.3
20260904223053 95 113 1.7 0.0 0.00 0.00 0.00 42 1009.4
20260904221553 95 147 1.7 0.0 0.00 0.00 0.00 42 1009.4
20260904220054 96 153 0.9 0.0 0.00 0.00 0.00 42 1009.4
20260904214549 95 222 1.7 0.0 0.00 0.00 0.00 41 1009.7
20260904213050 95 128 1.7 0.0 0.00 0.00 0.00 44 1009.9
20260904211543 94 197 1.7 0.0 0.00 0.00 0.00 47 1010.0
20260904210042 94 193 1.7 0.0 0.00 0.00 0.00 45 1010.1
20260904204540 92 180 2.6 0.0 0.00 0.00 0.00 48 1010.4
20260904203039 91 121 2.6 0.0 0.00 0.00 0.00 48 1010.5
20260904201538 93 257 2.6 0.0 0.00 0.00 0.00 51 1010.7